Weather History for Scottsbluff, NE

Change the Weather History Date:

Tuesday, January 2, 2001

  Actual Average Record
Temperature  
Mean Temperature 28 °F 26 °F  
Max Temperature 39 °F 40 °F 70 °F (1997)
Min Temperature 18 °F 13 °F -26 °F (1942)
Degree Days  
Heating Degree Days 36 39  
Month to date heating degree days 78  
Since 1 July heating degree days 2850  
Cooling Degree Days 0 0  
Month to date cooling degree days 0  
Year to date cooling degree days 0  
Moisture  
Dew Point 19 °F    
Average Humidity 75    
Maximum Humidity 96    
Minimum Humidity 52    
Precipitation  
Precipitation 0.00 in 0.02 in 0.65 in (1907)
Month to date precipitation 0.03  
Year to date precipitation 0.03  
Snow  
Snow 0.00 in 0.20 in 4.00 in (1907)
Month to date snowfall 0.4  
Since 1 July snowfall 16.4  
Snow Depth -    
Sea Level Pressure  
Sea Level Pressure 30.51 in    
Wind  
Wind Speed 9 mph (NW)    
Max Wind Speed 18 mph    
Max Gust Speed -    
Visibility 10 miles    
Events      
T = Trace of Precipitation, MM = Missing Value Source: NWS Daily Summary

Daily Weather History Graph

Daily Weather History Graph

Search for Another Location

Airport:

Trip Planner

Search our weather history database for the weather conditions in past years. The results will help you decide how hot, cold, wet, or windy it might be!

Date:

Astronomy

Jan. 02, 2001 Rise Set
Actual Time 7:22 AM MST 4:35 PM MST
Civil Twilight 6:50 AM MST 5:06 PM MST
Nautical Twilight 6:15 AM MST 5:41 PM MST
Astronomical Twilight 5:41 AM MST 6:15 PM MST
Moon 11:54 AM MST No Moon Set
Length of Visible Light 10h 15m
Length of Day
9h 13m
Waxing Crescent, 49% of the Moon is Illuminated
Jan 2
Waxing Crescent
Jan 2
First Quarter
Jan 9
Full
Jan 16
Last Quarter
Jan 24
New

Hourly Weather History & Observations

Time (MST) Temp. Windchill Dew Point Humidity Pressure Visibility Wind Dir Wind Speed Gust Speed Precip Events Conditions
12:54 AM 21.0 °F 12.4 °F 19.9 °F 96% 30.47 in 9.0 mi NW 6.9 mph - N/A   Clear
1:54 AM 18.0 °F 9.8 °F 16.0 °F 92% 30.50 in 8.0 mi NNW 5.8 mph - N/A   Clear
2:54 AM 18.0 °F 7.7 °F 16.0 °F 92% 30.52 in 8.0 mi NW 8.1 mph - N/A   Clear
3:54 AM 19.0 °F 7.5 °F 16.0 °F 88% 30.53 in 10.0 mi WNW 10.4 mph - N/A   Clear
4:54 AM 19.9 °F 7.9 °F 17.1 °F 89% 30.55 in 10.0 mi NW 11.5 mph - N/A   Clear
5:54 AM 18.0 °F 8.7 °F 15.1 °F 88% 30.57 in 10.0 mi WNW 6.9 mph - N/A   Clear
6:54 AM 18.0 °F 6.9 °F 15.1 °F 88% 30.59 in 10.0 mi NNW 9.2 mph - N/A   Clear
7:54 AM 18.0 °F 6.9 °F 14.0 °F 84% 30.60 in 10.0 mi NW 9.2 mph - N/A   Clear
8:54 AM 21.9 °F 10.4 °F 18.0 °F 85% 30.60 in 10.0 mi WNW 11.5 mph - N/A   Clear
9:54 AM 27.0 °F 17.3 °F 19.9 °F 75% 30.61 in 10.0 mi WNW 10.4 mph - N/A   Clear
10:54 AM 32.0 °F 22.5 °F 21.0 °F 64% 30.61 in 10.0 mi WNW 12.7 mph - N/A   Clear
11:54 AM 34.0 °F 23.8 °F 21.0 °F 59% 30.56 in 10.0 mi WNW 16.1 mph - N/A   Clear
12:54 PM 37.9 °F 29.6 °F 23.0 °F 55% 30.53 in 10.0 mi WNW 13.8 mph - N/A   Clear
1:54 PM 39.0 °F 31.4 °F 24.1 °F 55% 30.53 in 10.0 mi WNW 12.7 mph - N/A   Clear
2:54 PM 37.9 °F 29.6 °F 24.1 °F 57% 30.52 in 10.0 mi West 13.8 mph - N/A   Clear
3:54 PM 35.1 °F 28.6 °F 24.1 °F 64% 30.51 in 10.0 mi West 8.1 mph - N/A   Clear
4:54 PM 32.0 °F 27.5 °F 21.9 °F 66% 30.50 in 10.0 mi WNW 4.6 mph - N/A   Clear
5:54 PM 30.9 °F - 21.0 °F 67% 30.49 in 10.0 mi Calm Calm - N/A   Partly Cloudy
6:54 PM 30.0 °F 26.5 °F 19.9 °F 66% 30.47 in 10.0 mi WNW 3.5 mph - N/A   Clear
7:54 PM 25.0 °F - 18.0 °F 75% 30.48 in 10.0 mi Calm Calm - N/A   Clear
8:54 PM 26.1 °F 20.5 °F 18.0 °F 71% 30.45 in 10.0 mi NNW 4.6 mph - N/A   Clear
9:54 PM 23.0 °F 13.9 °F 17.1 °F 78% 30.42 in 10.0 mi NNW 8.1 mph - N/A   Clear
10:54 PM 24.1 °F 13.7 °F 19.9 °F 84% 30.39 in 10.0 mi NNW 10.4 mph - N/A   Clear
11:54 PM 33.1 °F 21.9 °F 17.1 °F 52% 30.34 in 10.0 mi WNW 18.4 mph - N/A   Scattered Clouds